Mineral Wells, TX

6:31 PM CST on December 08, 2016 (GMT -0600)
Mineral Wells

Weather History for KMWL - February, 2013

Change the Weather History Date:

Saturday, February 9, 2013

  Actual Average Record
Temperature  
Mean Temperature 50 °F -  
Max Temperature 57 °F 56 °F 78 °F (2000)
Min Temperature 44 °F 35 °F 12 °F (2011)
Degree Days  
Heating Degree Days 14    
Moisture  
Dew Point 48 °F    
Average Humidity 89    
Maximum Humidity 100    
Minimum Humidity 60    
Precipitation  
Precipitation 0.00 in - - ()
Sea Level Pressure  
Sea Level Pressure 29.90 in    
Wind  
Wind Speed 13 mph (SE)    
Max Wind Speed 23 mph    
Max Gust Speed 30 mph    
Visibility 4 miles    
Events Fog , Rain    
Averages and records for this station are not official NWS values.
T = Trace of Precipitation, MM = Missing Value Source: NWS Daily Summary

Daily Weather History Graph

Daily Weather History Graph

Search for Another Location

Airport or City:

Trip Planner

Search our weather history database for the weather conditions in past years. The results will help you decide how hot, cold, wet, or windy it might be!

Date:

Astronomy

Feb. 09, 2013 Rise Set
Actual Time 7:20 AM CST 6:12 PM CST
Civil Twilight 6:55 AM CST 6:38 PM CST
Nautical Twilight 6:26 AM CST 7:07 PM CST
Astronomical Twilight 5:57 AM CST 7:36 PM CST
Moon 6:33 AM CST 5:54 PM CST
Length of Visible Light 11h 42m
Length of Day
10h 51m
Waning Crescent, 0% of the Moon is Illuminated
Feb 9
Waning Crescent
Feb 10
New
Feb 17
First Quarter
Feb 25
Full
Mar 4
Last Quarter

Hourly Weather History & Observations

Time (CST) Temp. Windchill Dew Point Humidity Pressure Visibility Wind Dir Wind Speed Gust Speed Precip Events Conditions
12:53 AM 45.0 °F 41.8 °F 32.0 °F 60% 30.08 in 10.0 mi SE 5.8 mph - N/A   Partly Cloudy
1:53 AM 44.1 °F 40.1 °F 32.0 °F 63% 30.05 in 10.0 mi SE 6.9 mph - N/A   Clear
2:53 AM 48.0 °F - 39.9 °F 74% 30.06 in 10.0 mi SSE 11.5 mph - N/A   Clear
3:53 AM 48.0 °F - 42.1 °F 80% 30.05 in 10.0 mi SE 11.5 mph - N/A   Partly Cloudy
4:53 AM 48.9 °F - 44.1 °F 83% 30.04 in 9.0 mi SSE 12.7 mph 20.7 mph N/A   Clear
5:53 AM 48.9 °F - 45.0 °F 86% 30.02 in 8.0 mi SE 12.7 mph - N/A   Clear
6:31 AM 48.2 °F - 44.6 °F 87% 30.03 in 8.0 mi SE 13.8 mph - N/A   Mostly Cloudy
6:53 AM 48.9 °F - 46.0 °F 90% 30.03 in 8.0 mi SE 15.0 mph - N/A   Overcast
7:53 AM 48.9 °F - 46.0 °F 90% 30.00 in 6.0 mi SE 18.4 mph 24.2 mph N/A   Overcast
8:30 AM 48.2 °F - 46.4 °F 93% 30.00 in 6.0 mi SE 18.4 mph 26.5 mph 0.00 in   Overcast
8:53 AM 48.9 °F - 46.0 °F 90% 30.00 in 6.0 mi SE 19.6 mph 25.3 mph 0.00 in   Overcast
9:20 AM 48.2 °F - 46.4 °F 93% 30.02 in 7.0 mi SSE 20.7 mph 28.8 mph 0.00 in Rain Light Rain
9:53 AM 50.0 °F - 46.0 °F 86% 30.00 in 7.0 mi SE 19.6 mph 26.5 mph 0.00 in   Overcast
10:53 AM 50.0 °F - 46.0 °F 86% 29.96 in 6.0 mi SE 23.0 mph 29.9 mph N/A   Overcast
11:53 AM 52.0 °F - 46.9 °F 83% 29.96 in 6.0 mi SSE 18.4 mph - N/A   Haze
12:53 PM 52.0 °F - 48.0 °F 86% 29.90 in 5.0 mi SE 18.4 mph 27.6 mph N/A   Overcast
1:53 PM 52.0 °F - 46.9 °F 83% 29.86 in 5.0 mi SE 15.0 mph - N/A   Haze
2:53 PM 53.1 °F - 48.0 °F 83% 29.83 in 3.0 mi SSE 15.0 mph 25.3 mph N/A   Haze
3:29 PM 51.8 °F - 48.2 °F 88% 29.83 in 1.8 mi SE 12.7 mph - N/A   Overcast
3:53 PM 52.0 °F - 50.0 °F 93% 29.81 in 1.0 mi SE 12.7 mph - 0.00 in Rain Light Rain
4:00 PM 51.8 °F - 50.0 °F 94% 29.82 in 1.0 mi SE 11.5 mph - 0.00 in Rain Light Rain
4:35 PM 51.8 °F - 51.8 °F 100% 29.81 in 0.8 mi SE 15.0 mph - 0.00 in Rain Light Rain
4:53 PM 52.0 °F - 51.1 °F 97% 29.80 in 0.8 mi SE 15.0 mph 26.5 mph 0.00 in   Overcast
5:53 PM 51.1 °F - 51.1 °F 100% 29.78 in 0.8 mi SE 13.8 mph - N/A   Overcast
6:17 PM 51.8 °F - 51.8 °F 100% 29.79 in 1.2 mi SE 12.7 mph - N/A   Overcast
6:53 PM 52.0 °F - 51.1 °F 97% 29.78 in 1.2 mi SE 13.8 mph - N/A   Overcast
7:53 PM 52.0 °F - 52.0 °F 100% 29.77 in 1.0 mi SE 12.7 mph - 0.00 in   Overcast
8:53 PM 53.1 °F - 53.1 °F 100% 29.75 in 1.0 mi SE 11.5 mph - N/A   Overcast
9:20 PM 53.6 °F - 53.6 °F 100% 29.75 in 0.8 mi SE 11.5 mph - N/A   Overcast
9:53 PM 55.0 °F - 54.0 °F 96% 29.72 in 0.8 mi SE 16.1 mph 21.9 mph N/A   Overcast
10:53 PM 57.0 °F - 55.9 °F 96% 29.70 in 0.5 mi SSE 12.7 mph - N/A Fog Fog
11:53 PM 57.9 °F - 57.9 °F 100% 29.67 in 0.8 mi SSE 15.0 mph 24.2 mph N/A   Overcast